Regional Weather Roundup
Issued by NWS Little Rock, AR

Home | Current Version | Previous Version | Graphics & Text | Print | Product List | Glossary On
Versions: 1 2 3 4 5 6 7 8 9 10 11 12 13 14 15 16 17 18 19 20 21 22 23 24 25 26 27 28 29 30 31 32 33 34 35 36 37 38 39 40 41 42 43 44 45 46 47 48 49 50
000
ASUS44 KLZK 031105
RWRLZK

WEATHER ROUNDUP FOR ARKANSAS
NATIONAL WEATHER SERVICE LITTLE ROCK AR
600 AM CDT SUN MAY 03 2015

NOTE: "FAIR" INDICATES FEW OR NO CLOUDS BELOW 12,000 FEET WITH NO
SIGNIFICANT WEATHER AND/OR OBSTRUCTIONS TO VISIBILITY.

ARZ001-003-010-029-031200-
NORTHWEST ARKANSAS

CITY           SKY/WX    TMP DP  RH WIND       PRES   REMARKS
FAYETTEVILLE   CLEAR     53  50  89 CALM      29.99F
FORT SMITH     CLEAR     57  52  83 NE5       29.99S
HARRISON       CLEAR     51  48  89 SE6       30.01S
BENTONVILLE    FAIR     N/A N/A N/A CALM      29.99R
ROGERS         CLEAR     57  50  77 SE5       30.00R
SILOAM SPGS    PTCLDY    61  46  59 S7        30.00R
SPRINGDALE     CLEAR     57  50  77 S6        30.01
$$

ARZ004-005-016-031200-
NORTH CENTRAL ARKANSAS

CITY           SKY/WX    TMP DP  RH WIND       PRES   REMARKS
BATESVILLE     CLEAR     57  43  58 SE3       30.03S
FLIPPIN        CLEAR     55  45  67 CALM      29.99S
MTN HOME       CLEAR     55  44  66 S5        30.00F
$$

ARZ040-041-031200-
WEST CENTRAL ARKANSAS

CITY           SKY/WX    TMP DP  RH WIND       PRES   REMARKS
MENA           CLEAR     52  50  93 CALM      30.03S
MOUNT IDA      CLEAR     50  48  93 CALM      30.00F
$$

ARZ009-017-025-026-028-031200-
NORTHEAST ARKANSAS

CITY           SKY/WX    TMP DP  RH WIND       PRES   REMARKS
CORNING          N/A     55  50  82 CALM      30.04S
JONESBORO      CLEAR     47  47 100 CALM      30.04S
NEWPORT        CLEAR     53  49  86 SE3       30.05S
WALNUT RIDGE   PTCLDY    55  45  67 S5        30.03S
BLYTHEVILLE    PTCLDY    58  50  75 S5        30.06S
$$

ARZ022-023-033-042-044-031200-
CENTRAL ARKANSAS

CITY           SKY/WX    TMP DP  RH WIND       PRES   REMARKS
LITTLE ROCK    PTCLDY    54  48  80 CALM      30.04S
N LITTLE ROCK    N/A     59  47  63 SW6       30.04
JACKSONVILLE   CLEAR     48  46  93 CALM      30.03F
SEARCY         CLEAR     49  48  97 CALM      30.05F
HOT SPRINGS    CLEAR     54  46  74 CALM      30.03F
RUSSELLVILLE   CLEAR     52  50  93 CALM      30.02S
CLINTON        FAIR      45  45 100 CALM      30.06S FOG
$$

ARZ036-031200-
EAST ARKANSAS

CITY           SKY/WX    TMP DP  RH WIND       PRES   REMARKS
WEST MEMPHIS   CLEAR     51  50  96 S5        30.05S
$$

ARZ050-053-066-070-073-031200-
SOUTHWEST ARKANSAS

CITY           SKY/WX    TMP DP  RH WIND       PRES   REMARKS
ARKADELPHIA    FAIR      54  54 100 CALM      30.04S
CAMDEN         PTCLDY    54  50  87 CALM      30.03S
TEXARKANA      CLEAR     63  54  72 S7        30.02R
EL DORADO      MOCLDY    56  52  86 CALM      30.04R
DE QUEEN       CLEAR     54  53  97 CALM      30.00R
$$

ARZ056-057-069-031200-
SOUTHEAST ARKANSAS

CITY           SKY/WX    TMP DP  RH WIND       PRES   REMARKS
PINE BLUFF     MOCLDY    55  52  89 CALM      30.05S
STUTTGART      CLEAR     57  48  72 S5        30.05S
MONTICELLO     PTCLDY    58  46  64 SE3       30.05R

$$




USA.gov is the U.S. government's official web portal to all federal, state and local government web resources and services.